Time,TemperatureF,DewpointF,PressureIn,WindDirection,WindDirectionDegrees,WindSpeedMPH,WindSpeedGustMPH,Humidity,HourlyPrecipIn,Conditions,Clouds,dailyrainin,SoftwareType,DateUTC
2013-09-01 00:01:00,68.6,67.4,29.77,WNW,292,0.0,0.0,96,0.00,,---,0.00,VWS V13.01,2013-09-01 04:01:00,
2013-09-01 00:02:00,68.6,67.4,29.77,WNW,292,0.0,0.0,96,0.00,,---,0.00,VWS V13.01,2013-09-01 04:02:00,
2013-09-01 00:03:00,68.6,67.4,29.77,WNW,292,0.0,0.0,96,0.00,,---,0.00,VWS V13.01,2013-09-01 04:03:00,
2013-09-01 00:07:00,68.3,67.1,29.77,WNW,292,0.0,0.0,96,0.00,,---,0.00,VWS V13.01,2013-09-01 04:07:00,
2013-09-01 00:12:00,68.1,66.9,29.77,WNW,292,0.0,0.0,96,0.00,,---,0.00,VWS V13.01,2013-09-01 04:12:00,
2013-09-01 00:13:00,68.0,66.8,29.77,WNW,292,0.0,0.0,96,0.00,,---,0.00,VWS V13.01,2013-09-01 04:13:00,
2013-09-01 00:18:00,67.5,66.3,29.77,WNW,292,0.0,0.0,96,0.00,,---,0.00,VWS V13.01,2013-09-01 04:18:00,
2013-09-01 00:23:00,67.3,66.1,29.76,WNW,292,0.0,0.0,96,0.00,,---,0.00,VWS V13.01,2013-09-01 04:23:00,
2013-09-01 00:28:00,67.1,65.9,29.76,WNW,292,0.0,0.0,96,0.00,,---,0.00,VWS V13.01,2013-09-01 04:28:00,
2013-09-01 00:33:00,66.8,65.6,29.76,WNW,292,2.0,4.0,96,0.00,,---,0.00,VWS V13.01,2013-09-01 04:33:00,
2013-09-01 00:38:00,66.7,65.5,29.75,WNW,292,0.0,4.0,96,0.00,,---,0.00,VWS V13.01,2013-09-01 04:38:00,
2013-09-01 00:43:00,66.7,65.8,29.76,WNW,292,0.0,4.0,97,0.00,,---,0.00,VWS V13.01,2013-09-01 04:43:00,
2013-09-01 00:48:00,66.6,65.7,29.75,WNW,292,0.0,4.0,97,0.00,,---,0.00,VWS V13.01,2013-09-01 04:48:00,
2013-09-01 00:54:00,66.3,65.4,29.75,WNW,292,0.0,4.0,97,0.00,,---,0.00,VWS V13.01,2013-09-01 04:54:00,
2013-09-01 00:59:00,66.1,65.2,29.75,WNW,292,0.0,4.0,97,0.00,,---,0.00,VWS V13.01,2013-09-01 04:59:00,
2013-09-01 01:04:00,65.9,65.0,29.75,WNW,292,0.0,0.0,97,0.00,,---,0.00,VWS V13.01,2013-09-01 05:04:00,
2013-09-01 01:09:00,65.9,65.0,29.75,WNW,292,0.0,0.0,97,0.00,,---,0.00,VWS V13.01,2013-09-01 05:09:00,
2013-09-01 01:14:00,65.9,65.0,29.75,WNW,292,0.0,0.0,97,0.00,,---,0.00,VWS V13.01,2013-09-01 05:14:00,
2013-09-01 01:19:00,65.6,64.7,29.75,WNW,292,0.0,0.0,97,0.00,,---,0.00,VWS V13.01,2013-09-01 05:19:00,
2013-09-01 01:24:00,65.4,64.5,29.75,WNW,292,0.0,0.0,97,0.00,,---,0.00,VWS V13.01,2013-09-01 05:24:00,
2013-09-01 01:29:00,65.1,64.2,29.75,WNW,292,0.0,0.0,97,0.00,,---,0.00,VWS V13.01,2013-09-01 05:29:00,
2013-09-01 01:34:00,64.9,64.0,29.75,WNW,292,0.0,0.0,97,0.00,,---,0.00,VWS V13.01,2013-09-01 05:34:00,
2013-09-01 01:39:00,64.8,63.9,29.75,WNW,292,0.0,0.0,97,0.00,,---,0.00,VWS V13.01,2013-09-01 05:39:00,
2013-09-01 01:40:00,64.8,63.9,29.75,WNW,292,0.0,0.0,97,0.00,,---,0.00,VWS V13.01,2013-09-01 05:40:00,
2013-09-01 01:45:00,65.0,64.1,29.75,WNW,292,0.0,0.0,97,0.00,,---,0.00,VWS V13.01,2013-09-01 05:45:00,
2013-09-01 01:50:00,64.8,63.9,29.75,WNW,292,0.0,0.0,97,0.00,,---,0.00,VWS V13.01,2013-09-01 05:50:00,
2013-09-01 01:55:00,64.5,63.6,29.75,WNW,292,0.0,0.0,97,0.00,,---,0.00,VWS V13.01,2013-09-01 05:55:00,
2013-09-01 02:00:00,64.6,64.0,29.75,WNW,292,0.0,0.0,98,0.00,,---,0.00,VWS V13.01,2013-09-01 06:00:00,
2013-09-01 02:05:00,64.8,64.2,29.75,WNW,292,0.0,0.0,98,0.00,,---,0.00,VWS V13.01,2013-09-01 06:05:00,
2013-09-01 02:11:00,65.1,64.5,29.75,WNW,292,0.0,0.0,98,0.00,,---,0.00,VWS V13.01,2013-09-01 06:11:00,
2013-09-01 02:16:00,65.3,64.7,29.75,WNW,292,0.0,0.0,98,0.00,,---,0.00,VWS V13.01,2013-09-01 06:16:00,
2013-09-01 02:21:00,65.5,64.9,29.75,WNW,292,0.0,0.0,98,0.00,,---,0.00,VWS V13.01,2013-09-01 06:21:00,
2013-09-01 02:26:00,65.8,65.2,29.76,WNW,292,0.0,0.0,98,0.00,,---,0.00,VWS V13.01,2013-09-01 06:26:00,
2013-09-01 02:31:00,66.1,65.5,29.75,WNW,292,0.0,0.0,98,0.00,,---,0.00,VWS V13.01,2013-09-01 06:31:00,
2013-09-01 02:36:00,66.1,65.5,29.75,WNW,292,0.0,0.0,98,0.00,,---,0.00,VWS V13.01,2013-09-01 06:36:00,
2013-09-01 02:41:00,66.1,65.5,29.75,WNW,292,0.0,0.0,98,0.00,,---,0.00,VWS V13.01,2013-09-01 06:41:00,
2013-09-01 02:46:00,66.2,65.6,29.75,WNW,292,0.0,0.0,98,0.00,,---,0.00,VWS V13.01,2013-09-01 06:46:00,
2013-09-01 02:51:00,65.9,65.3,29.75,WNW,292,0.0,0.0,98,0.00,,---,0.00,VWS V13.01,2013-09-01 06:51:00,
2013-09-01 02:56:00,65.6,65.0,29.75,WNW,292,0.0,0.0,98,0.00,,---,0.00,VWS V13.01,2013-09-01 06:56:00,
2013-09-01 03:01:00,65.6,65.0,29.75,WNW,292,0.0,0.0,98,0.00,,---,0.00,VWS V13.01,2013-09-01 07:01:00,
2013-09-01 03:06:00,65.8,65.2,29.75,WNW,292,0.0,0.0,98,0.00,,---,0.00,VWS V13.01,2013-09-01 07:06:00,
2013-09-01 03:11:00,65.9,65.3,29.75,WNW,292,0.0,0.0,98,0.00,,---,0.00,VWS V13.01,2013-09-01 07:11:00,
2013-09-01 03:16:00,66.0,-90.3,29.76,WNW,292,0.0,0.0,98,0.00,,---,0.00,VWS V13.01,2013-09-01 07:16:00,
2013-09-01 03:21:00,66.0,-90.1,29.77,WNW,292,0.0,0.0,99,0.00,,---,0.00,VWS V13.01,2013-09-01 07:21:00,
2013-09-01 03:27:00,66.0,-90.1,29.78,WNW,292,0.0,0.0,99,0.00,,---,0.00,VWS V13.01,2013-09-01 07:27:00,
2013-09-01 03:32:00,66.0,-90.1,29.79,WNW,292,0.0,0.0,99,0.00,,---,0.00,VWS V13.01,2013-09-01 07:32:00,
2013-09-01 03:37:00,66.0,-90.1,29.79,WNW,292,0.0,0.0,99,0.00,,---,0.00,VWS V13.01,2013-09-01 07:37:00,
2013-09-01 03:42:00,66.0,-90.1,29.79,WNW,292,0.0,0.0,99,0.00,,---,0.00,VWS V13.01,2013-09-01 07:42:00,
2013-09-01 03:47:00,66.0,-90.1,29.80,WNW,292,0.0,1.0,99,0.00,,---,0.00,VWS V13.01,2013-09-01 07:47:00,
2013-09-01 03:52:00,66.0,-90.1,29.80,WNW,292,0.0,1.0,99,0.00,,---,0.00,VWS V13.01,2013-09-01 07:52:00,
2013-09-01 03:57:00,66.0,-90.1,29.81,WNW,292,0.0,1.0,99,0.00,,---,0.00,VWS V13.01,2013-09-01 07:57:00,
2013-09-01 04:02:00,66.0,-90.1,29.81,WNW,292,0.0,0.0,99,0.00,,---,0.00,VWS V13.01,2013-09-01 08:02:00,
2013-09-01 04:07:00,66.0,-90.1,29.82,WNW,292,0.0,0.0,99,0.00,,---,0.00,VWS V13.01,2013-09-01 08:07:00,
2013-09-01 04:12:00,66.0,-90.1,29.83,WNW,292,0.0,0.0,99,0.00,,---,0.00,VWS V13.01,2013-09-01 08:12:00,
2013-09-01 04:17:00,66.0,-90.1,29.83,WNW,292,0.0,0.0,99,0.00,,---,0.00,VWS V13.01,2013-09-01 08:17:00,
2013-09-01 04:22:00,66.0,-90.1,29.83,WNW,292,0.0,0.0,99,0.00,,---,0.00,VWS V13.01,2013-09-01 08:22:00,
2013-09-01 04:27:00,66.0,-90.1,29.84,WNW,292,0.0,0.0,99,0.00,,---,0.00,VWS V13.01,2013-09-01 08:27:00,
2013-09-01 04:32:00,66.0,-90.1,29.84,WNW,292,0.0,0.0,99,0.00,,---,0.00,VWS V13.01,2013-09-01 08:32:00,
2013-09-01 04:37:00,66.0,-90.1,29.85,WNW,292,0.0,0.0,99,0.00,,---,0.00,VWS V13.01,2013-09-01 08:37:00,
2013-09-01 04:42:00,66.0,-90.1,29.85,WNW,292,0.0,0.0,99,0.00,,---,0.00,VWS V13.01,2013-09-01 08:42:00,
2013-09-01 04:47:00,66.0,-90.1,29.86,WNW,292,0.0,1.0,99,0.00,,---,0.00,VWS V13.01,2013-09-01 08:47:00,
2013-09-01 04:53:00,66.0,-90.1,29.86,WNW,292,0.0,1.0,99,0.00,,---,0.00,VWS V13.01,2013-09-01 08:53:00,
2013-09-01 04:58:00,66.0,-90.1,29.86,WNW,292,0.0,4.0,99,0.00,,---,0.00,VWS V13.01,2013-09-01 08:58:00,
2013-09-01 05:03:00,66.0,-90.1,29.87,WNW,292,0.0,1.0,99,0.00,,---,0.00,VWS V13.01,2013-09-01 09:03:00,
2013-09-01 05:08:00,66.0,-90.1,29.87,WNW,292,0.0,5.0,99,0.00,,---,0.00,VWS V13.01,2013-09-01 09:08:00,
2013-09-01 05:13:00,66.0,-90.1,29.88,WNW,292,0.0,5.0,99,0.00,,---,0.00,VWS V13.01,2013-09-01 09:13:00,
2013-09-01 05:18:00,66.0,-90.1,29.88,WNW,292,0.0,5.0,99,0.00,,---,0.00,VWS V13.01,2013-09-01 09:18:00,
2013-09-01 05:23:00,66.0,-90.1,29.89,WNW,292,0.0,5.0,99,0.00,,---,0.00,VWS V13.01,2013-09-01 09:23:00,
2013-09-01 05:28:00,66.0,-90.1,29.89,WNW,292,0.0,5.0,99,0.00,,---,0.00,VWS V13.01,2013-09-01 09:28:00,
2013-09-01 05:33:00,66.0,-90.1,29.89,WNW,292,0.0,0.0,99,0.00,,---,0.00,VWS V13.01,2013-09-01 09:33:00,
2013-09-01 05:38:00,66.0,-90.1,29.89,WNW,292,0.0,0.0,99,0.00,,---,0.00,VWS V13.01,2013-09-01 09:38:00,
2013-09-01 05:43:00,66.0,-90.1,29.89,WNW,292,0.0,0.0,99,0.00,,---,0.00,VWS V13.01,2013-09-01 09:43:00,
2013-09-01 05:48:00,66.0,-90.1,29.89,WNW,292,0.0,0.0,99,0.00,,---,0.00,VWS V13.01,2013-09-01 09:48:00,
2013-09-01 05:53:00,66.0,-90.1,29.89,WNW,292,0.0,0.0,99,0.00,,---,0.00,VWS V13.01,2013-09-01 09:53:00,
2013-09-01 05:58:00,66.0,-90.1,29.89,WNW,292,0.0,0.0,99,0.00,,---,0.00,VWS V13.01,2013-09-01 09:58:00,
2013-09-01 06:03:00,66.0,-90.1,29.89,WNW,292,0.0,1.0,99,0.00,,---,0.00,VWS V13.01,2013-09-01 10:03:00,
2013-09-01 06:08:00,66.0,-90.1,29.89,WNW,292,0.0,1.0,99,0.00,,---,0.00,VWS V13.01,2013-09-01 10:08:00,
2013-09-01 06:14:00,66.0,-90.1,29.89,WNW,292,0.0,1.0,99,0.00,,---,0.00,VWS V13.01,2013-09-01 10:14:00,
2013-09-01 06:19:00,66.0,-90.1,29.90,WNW,292,0.0,1.0,99,0.00,,---,0.00,VWS V13.01,2013-09-01 10:19:00,
2013-09-01 06:24:00,66.0,-90.1,29.90,WNW,292,0.0,1.0,99,0.00,,---,0.00,VWS V13.01,2013-09-01 10:24:00,
2013-09-01 06:29:00,66.0,-90.1,29.90,WNW,292,0.0,1.0,99,0.00,,---,0.00,VWS V13.01,2013-09-01 10:29:00,
2013-09-01 06:34:00,66.0,-90.1,29.90,WNW,292,0.0,0.0,99,0.00,,---,0.00,VWS V13.01,2013-09-01 10:34:00,
2013-09-01 06:39:00,66.0,-90.1,29.90,WNW,292,0.0,0.0,99,0.00,,---,0.00,VWS V13.01,2013-09-01 10:39:00,
2013-09-01 06:44:00,66.0,-90.1,29.91,WNW,292,0.0,0.0,99,0.00,,---,0.00,VWS V13.01,2013-09-01 10:44:00,
2013-09-01 06:49:00,66.0,-90.1,29.91,WNW,292,0.0,0.0,99,0.00,,---,0.00,VWS V13.01,2013-09-01 10:49:00,
2013-09-01 06:54:00,66.0,-90.1,29.91,WNW,292,0.0,1.0,99,0.00,,---,0.00,VWS V13.01,2013-09-01 10:54:00,
2013-09-01 06:59:00,66.0,-90.1,29.92,WNW,292,0.0,1.0,99,0.00,,---,0.00,VWS V13.01,2013-09-01 10:59:00,
2013-09-01 07:04:00,66.0,-90.1,29.91,WNW,292,0.0,0.0,99,0.00,,---,0.00,VWS V13.01,2013-09-01 11:04:00,
2013-09-01 07:09:00,66.0,-90.1,29.92,WNW,292,0.0,0.0,99,0.00,,---,0.00,VWS V13.01,2013-09-01 11:09:00,
2013-09-01 07:14:00,66.0,-90.1,29.92,WNW,292,0.0,1.0,99,0.00,,---,0.00,VWS V13.01,2013-09-01 11:14:00,
2013-09-01 07:19:00,66.0,-90.1,29.92,WNW,292,0.0,1.0,99,0.00,,---,0.00,VWS V13.01,2013-09-01 11:19:00,
2013-09-01 07:24:00,66.0,-90.1,29.92,WNW,292,0.0,2.0,99,0.00,,---,0.00,VWS V13.01,2013-09-01 11:24:00,
2013-09-01 07:29:00,66.0,-90.1,29.92,WNW,292,0.0,2.0,99,0.00,,---,0.00,VWS V13.01,2013-09-01 11:29:00,
2013-09-01 07:35:00,66.0,-90.1,29.92,WNW,292,0.0,1.0,99,0.00,,---,0.00,VWS V13.01,2013-09-01 11:35:00,
2013-09-01 07:40:00,66.0,-90.1,29.92,WNW,292,0.0,1.0,99,0.00,,---,0.00,VWS V13.01,2013-09-01 11:40:00,
2013-09-01 07:45:00,66.0,-90.1,29.92,WNW,292,0.0,1.0,99,0.00,,---,0.00,VWS V13.01,2013-09-01 11:45:00,
2013-09-01 07:50:00,66.0,-90.1,29.92,WNW,292,0.0,1.0,99,0.00,,---,0.00,VWS V13.01,2013-09-01 11:50:00,
2013-09-01 07:55:00,66.0,-90.1,29.92,WNW,292,0.0,1.0,99,0.00,,---,0.00,VWS V13.01,2013-09-01 11:55:00,
2013-09-01 08:00:00,66.0,-90.1,29.92,WNW,292,0.0,0.0,99,0.00,,---,0.00,VWS V13.01,2013-09-01 12:00:00,
2013-09-01 08:05:00,66.0,-90.1,29.92,WNW,292,0.0,0.0,99,0.00,,---,0.00,VWS V13.01,2013-09-01 12:05:00,
2013-09-01 08:10:00,66.0,-90.1,29.92,WNW,292,0.0,1.0,99,0.00,,---,0.00,VWS V13.01,2013-09-01 12:10:00,
2013-09-01 08:15:00,66.0,-90.1,29.92,WNW,292,0.0,1.0,99,0.00,,---,0.00,VWS V13.01,2013-09-01 12:15:00,
2013-09-01 08:20:00,66.0,-90.1,29.92,WNW,292,0.0,1.0,99,0.00,,---,0.00,VWS V13.01,2013-09-01 12:20:00,
2013-09-01 08:25:00,66.0,-90.1,29.92,WNW,292,0.0,1.0,99,0.00,,---,0.00,VWS V13.01,2013-09-01 12:25:00,
2013-09-01 08:30:00,66.0,-90.1,29.92,WNW,292,0.0,0.0,99,0.00,,---,0.00,VWS V13.01,2013-09-01 12:30:00,
2013-09-01 08:35:00,66.0,-90.1,29.92,WNW,292,0.0,0.0,99,0.00,,---,0.00,VWS V13.01,2013-09-01 12:35:00,
2013-09-01 08:41:00,66.0,-90.1,29.92,WNW,292,0.0,1.0,99,0.00,,---,0.00,VWS V13.01,2013-09-01 12:41:00,
2013-09-01 08:46:00,66.0,-90.1,29.92,WNW,292,0.0,1.0,99,0.00,,---,0.00,VWS V13.01,2013-09-01 12:46:00,
2013-09-01 08:51:00,66.0,-90.1,29.92,WNW,292,0.0,1.0,99,0.00,,---,0.00,VWS V13.01,2013-09-01 12:51:00,
2013-09-01 08:56:00,66.0,-90.1,29.92,WNW,292,0.0,1.0,99,0.00,,---,0.00,VWS V13.01,2013-09-01 12:56:00,
2013-09-01 09:01:00,66.0,-90.1,29.92,WNW,292,0.0,0.0,99,0.00,,---,0.00,VWS V13.01,2013-09-01 13:01:00,
2013-09-01 09:06:00,66.0,-90.1,29.92,WNW,292,0.0,0.0,99,0.00,,---,0.00,VWS V13.01,2013-09-01 13:06:00,
2013-09-01 09:11:00,66.0,-90.1,29.92,WNW,292,0.0,2.0,99,0.00,,---,0.00,VWS V13.01,2013-09-01 13:11:00,
2013-09-01 09:16:00,66.0,-90.1,29.92,WNW,292,0.0,2.0,99,0.00,,---,0.00,VWS V13.01,2013-09-01 13:16:00,
2013-09-01 09:21:00,66.0,-90.1,29.92,WNW,292,0.0,2.0,99,0.00,,---,0.00,VWS V13.01,2013-09-01 13:21:00,
2013-09-01 09:26:00,66.0,-90.1,29.92,WNW,292,0.0,2.0,99,0.00,,---,0.00,VWS V13.01,2013-09-01 13:26:00,
2013-09-01 09:31:00,66.0,-90.1,29.92,WNW,292,0.0,0.0,99,0.00,,---,0.00,VWS V13.01,2013-09-01 13:31:00,
2013-09-01 09:36:00,66.0,-90.1,29.92,WNW,292,0.0,1.0,99,0.00,,---,0.00,VWS V13.01,2013-09-01 13:36:00,
2013-09-01 09:41:00,66.0,-90.1,29.92,WNW,292,0.0,1.0,99,0.00,,---,0.00,VWS V13.01,2013-09-01 13:41:00,
2013-09-01 09:46:00,66.0,-90.1,29.92,WNW,292,0.0,1.0,99,0.00,,---,0.00,VWS V13.01,2013-09-01 13:46:00,
2013-09-01 09:51:00,66.0,-90.1,29.92,NW,308,0.0,5.0,99,0.00,,---,0.00,VWS V13.01,2013-09-01 13:51:00,
2013-09-01 09:56:00,66.0,-90.1,29.92,NW,316,0.0,5.0,99,0.00,,---,0.00,VWS V13.01,2013-09-01 13:56:00,
2013-09-01 10:02:00,66.0,-90.1,29.92,NNW,344,4.0,4.0,99,0.00,,---,0.00,VWS V13.01,2013-09-01 14:02:00,
2013-09-01 10:07:00,66.0,-90.1,29.93,NNE,28,0.0,4.0,99,0.00,,---,0.00,VWS V13.01,2013-09-01 14:07:00,
2013-09-01 10:12:00,66.0,-90.1,29.94,NE,40,0.0,4.0,99,0.00,,---,0.00,VWS V13.01,2013-09-01 14:12:00,
2013-09-01 10:17:00,66.0,-90.1,29.94,NE,40,0.0,4.0,99,0.00,,---,0.00,VWS V13.01,2013-09-01 14:17:00,
2013-09-01 10:22:00,66.0,-90.1,29.94,NE,46,4.0,4.0,99,0.00,,---,0.00,VWS V13.01,2013-09-01 14:22:00,
2013-09-01 10:27:00,66.0,-90.1,29.95,NE,51,0.0,5.0,99,0.00,,---,0.00,VWS V13.01,2013-09-01 14:27:00,
2013-09-01 10:32:00,73.1,69.7,29.95,NE,51,0.0,0.0,89,0.00,,---,0.00,VWS V13.01,2013-09-01 14:32:00,
2013-09-01 10:37:00,73.8,70.0,29.95,NE,51,0.0,1.0,88,0.00,,---,0.00,VWS V13.01,2013-09-01 14:37:00,
2013-09-01 10:42:00,74.1,70.0,29.94,ENE,63,0.0,5.0,87,0.00,,---,0.00,VWS V13.01,2013-09-01 14:42:00,
2013-09-01 10:47:00,74.6,70.1,29.94,ENE,63,0.0,5.0,86,0.00,,---,0.00,VWS V13.01,2013-09-01 14:47:00,
2013-09-01 10:52:00,74.8,70.0,29.93,ENE,63,0.0,5.0,85,0.00,,---,0.00,VWS V13.01,2013-09-01 14:52:00,
2013-09-01 10:57:00,74.9,70.1,29.92,ENE,63,0.0,5.0,85,0.00,,---,0.00,VWS V13.01,2013-09-01 14:57:00,
2013-09-01 11:03:00,75.2,70.0,29.92,ENE,63,0.0,5.0,84,0.00,,---,0.00,VWS V13.01,2013-09-01 15:03:00,
2013-09-01 11:08:00,75.6,70.4,29.92,ENE,63,0.0,5.0,84,0.00,,---,0.00,VWS V13.01,2013-09-01 15:08:00,
2013-09-01 11:13:00,76.3,70.1,29.91,ENE,63,0.0,5.0,81,0.00,,---,0.00,VWS V13.01,2013-09-01 15:13:00,
2013-09-01 11:18:00,77.3,71.0,29.91,ENE,62,0.0,5.0,81,0.00,,---,0.00,VWS V13.01,2013-09-01 15:18:00,
2013-09-01 11:23:00,77.9,71.6,29.90,ENE,61,4.0,5.0,81,0.00,,---,0.00,VWS V13.01,2013-09-01 15:23:00,
2013-09-01 11:28:00,78.1,71.1,29.90,ENE,61,0.0,5.0,79,0.00,,---,0.00,VWS V13.01,2013-09-01 15:28:00,
2013-09-01 11:33:00,77.8,70.8,29.90,NE,50,0.0,6.0,79,0.00,,---,0.00,VWS V13.01,2013-09-01 15:33:00,
2013-09-01 11:38:00,77.3,70.3,29.89,NE,49,0.0,6.0,79,0.00,,---,0.00,VWS V13.01,2013-09-01 15:38:00,
2013-09-01 11:43:00,77.0,70.0,29.89,ENE,62,0.0,6.0,79,0.00,,---,0.00,VWS V13.01,2013-09-01 15:43:00,
2013-09-01 11:48:00,76.9,70.6,29.88,ENE,60,4.0,6.0,81,0.00,,---,0.00,VWS V13.01,2013-09-01 15:48:00,
2013-09-01 11:53:00,77.4,70.8,29.88,NE,52,0.0,8.0,80,0.00,,---,0.00,VWS V13.01,2013-09-01 15:53:00,
2013-09-01 11:58:00,77.6,70.9,29.88,NE,54,0.0,8.0,80,0.00,,---,0.00,VWS V13.01,2013-09-01 15:58:00,
2013-09-01 12:03:00,78.0,70.6,29.88,NE,54,0.0,0.0,78,0.00,,---,0.00,VWS V13.01,2013-09-01 16:03:00,
2013-09-01 12:08:00,78.3,71.3,29.88,NE,43,4.0,5.0,79,0.00,,---,0.00,VWS V13.01,2013-09-01 16:08:00,
2013-09-01 12:13:00,78.7,70.5,29.88,WNW,283,0.0,7.0,76,0.00,,---,0.00,VWS V13.01,2013-09-01 16:13:00,
2013-09-01 12:18:00,79.2,69.8,29.87,WSW,240,6.0,9.0,73,0.00,,---,0.00,VWS V13.01,2013-09-01 16:18:00,
2013-09-01 12:23:00,79.3,70.7,29.87,South,183,0.0,9.0,75,0.00,,---,0.00,VWS V13.01,2013-09-01 16:23:00,
2013-09-01 12:28:00,80.1,70.7,29.87,South,183,2.0,9.0,73,0.00,,---,0.00,VWS V13.01,2013-09-01 16:28:00,
2013-09-01 12:33:00,81.0,71.1,29.87,South,184,2.0,2.0,72,0.00,,---,0.00,VWS V13.01,2013-09-01 16:33:00,
2013-09-01 12:39:00,81.6,71.3,29.87,West,269,4.0,8.0,71,0.00,,---,0.00,VWS V13.01,2013-09-01 16:39:00,
2013-09-01 12:44:00,81.4,70.7,29.87,West,269,0.0,8.0,70,0.00,,---,0.00,VWS V13.01,2013-09-01 16:44:00,
2013-09-01 12:49:00,81.1,70.4,29.86,South,187,0.0,8.0,70,0.00,,---,0.00,VWS V13.01,2013-09-01 16:49:00,
2013-09-01 12:54:00,80.6,70.3,29.86,ENE,69,0.0,8.0,71,0.00,,---,0.00,VWS V13.01,2013-09-01 16:54:00,
2013-09-01 12:59:00,80.3,70.5,29.86,SW,231,0.0,8.0,72,0.00,,---,0.00,VWS V13.01,2013-09-01 16:59:00,
2013-09-01 13:04:00,80.5,70.2,29.86,West,261,7.0,10.0,71,0.00,,---,0.00,VWS V13.01,2013-09-01 17:04:00,
2013-09-01 13:09:00,80.9,69.8,29.86,West,264,0.0,11.0,69,0.00,,---,0.00,VWS V13.01,2013-09-01 17:09:00,
2013-09-01 13:14:00,81.5,70.4,29.86,West,261,2.0,11.0,69,0.00,,---,0.00,VWS V13.01,2013-09-01 17:14:00,
2013-09-01 13:19:00,82.0,70.4,29.86,NW,309,5.0,11.0,68,0.00,,---,0.00,VWS V13.01,2013-09-01 17:19:00,
2013-09-01 13:24:00,82.4,70.8,29.86,West,261,5.0,13.0,68,0.00,,---,0.00,VWS V13.01,2013-09-01 17:24:00,
2013-09-01 13:29:00,83.0,70.5,29.85,West,263,5.0,13.0,66,0.00,,---,0.00,VWS V13.01,2013-09-01 17:29:00,
2013-09-01 13:35:00,83.2,71.6,29.85,WNW,282,7.0,8.0,68,0.00,,---,0.00,VWS V13.01,2013-09-01 17:35:00,
2013-09-01 13:40:00,83.7,72.0,29.85,SSW,205,8.0,9.0,68,0.00,,---,0.00,VWS V13.01,2013-09-01 17:40:00,
2013-09-01 13:45:00,83.1,71.0,29.85,West,276,7.0,9.0,67,0.00,,---,0.00,VWS V13.01,2013-09-01 17:45:00,
2013-09-01 13:50:00,83.0,71.8,29.85,West,281,5.0,10.0,69,0.00,,---,0.00,VWS V13.01,2013-09-01 17:50:00,
2013-09-01 13:55:00,83.1,71.9,29.85,West,272,12.0,15.0,69,0.00,,---,0.00,VWS V13.01,2013-09-01 17:55:00,
2013-09-01 14:00:00,82.5,70.4,29.85,West,266,5.0,5.0,67,0.00,,---,0.00,VWS V13.01,2013-09-01 18:00:00,
2013-09-01 14:05:00,81.6,70.0,29.85,West,272,7.0,14.0,68,0.00,,---,0.00,VWS V13.01,2013-09-01 18:05:00,
2013-09-01 14:10:00,80.9,70.6,29.85,West,264,0.0,14.0,71,0.00,,---,0.00,VWS V13.01,2013-09-01 18:10:00,
2013-09-01 14:15:00,80.9,71.0,29.85,West,264,4.0,14.0,72,0.00,,---,0.00,VWS V13.01,2013-09-01 18:15:00,
2013-09-01 14:20:00,81.4,71.9,29.85,West,263,5.0,14.0,73,0.00,,---,0.00,VWS V13.01,2013-09-01 18:20:00,
2013-09-01 14:25:00,81.3,71.0,29.85,West,267,2.0,14.0,71,0.00,,---,0.00,VWS V13.01,2013-09-01 18:25:00,
2013-09-01 14:30:00,81.1,71.6,29.85,WSW,237,4.0,5.0,73,0.00,,---,0.00,VWS V13.01,2013-09-01 18:30:00,
2013-09-01 14:36:00,82.2,71.9,29.85,West,265,0.0,8.0,71,0.00,,---,0.00,VWS V13.01,2013-09-01 18:36:00,
2013-09-01 14:41:00,83.1,71.9,29.84,West,267,0.0,8.0,69,0.00,,---,0.00,VWS V13.01,2013-09-01 18:41:00,
2013-09-01 14:46:00,83.0,71.8,29.84,West,267,0.0,8.0,69,0.00,,---,0.00,VWS V13.01,2013-09-01 18:46:00,
2013-09-01 14:51:00,82.4,70.8,29.84,West,267,0.0,8.0,68,0.00,,---,0.00,VWS V13.01,2013-09-01 18:51:00,
2013-09-01 14:56:00,82.2,71.0,29.84,West,267,2.0,8.0,69,0.00,,---,0.00,VWS V13.01,2013-09-01 18:56:00,
2013-09-01 15:01:00,82.0,71.3,29.83,West,267,0.0,0.0,70,0.00,,---,0.00,VWS V13.01,2013-09-01 19:01:00,
2013-09-01 15:06:00,81.6,71.3,29.83,West,267,4.0,5.0,71,0.00,,---,0.00,VWS V13.01,2013-09-01 19:06:00,
2013-09-01 15:11:00,82.0,72.9,29.83,West,267,0.0,5.0,74,0.00,,---,0.00,VWS V13.01,2013-09-01 19:11:00,
2013-09-01 15:16:00,82.9,72.5,29.82,West,267,1.0,5.0,71,0.00,,---,0.00,VWS V13.01,2013-09-01 19:16:00,
2013-09-01 15:21:00,83.4,72.2,29.82,West,267,2.0,6.0,69,0.00,,---,0.00,VWS V13.01,2013-09-01 19:21:00,
2013-09-01 15:26:00,84.4,72.7,29.81,WNW,284,8.0,8.0,68,0.00,,---,0.00,VWS V13.01,2013-09-01 19:26:00,
2013-09-01 15:31:00,83.6,71.1,29.82,WSW,254,5.0,8.0,66,0.00,,---,0.00,VWS V13.01,2013-09-01 19:31:00,
2013-09-01 15:36:00,83.3,71.2,29.82,WSW,254,0.0,8.0,67,0.00,,---,0.00,VWS V13.01,2013-09-01 19:36:00,
2013-09-01 15:41:00,83.8,71.7,29.82,West,264,6.0,8.0,67,0.00,,---,0.00,VWS V13.01,2013-09-01 19:41:00,
2013-09-01 15:46:00,83.8,72.6,29.81,West,263,8.0,11.0,69,0.00,,---,0.00,VWS V13.01,2013-09-01 19:46:00,
2013-09-01 15:52:00,84.3,72.6,29.81,WNW,300,8.0,11.0,68,0.00,,---,0.00,VWS V13.01,2013-09-01 19:52:00,
2013-09-01 15:57:00,84.7,71.6,29.81,WNW,284,0.0,11.0,65,0.00,,---,0.00,VWS V13.01,2013-09-01 19:57:00,
2013-09-01 16:02:00,84.8,71.7,29.81,West,280,6.0,11.0,65,0.00,,---,0.00,VWS V13.01,2013-09-01 20:02:00,
2013-09-01 16:07:00,84.1,72.0,29.80,West,266,5.0,11.0,67,0.00,,---,0.00,VWS V13.01,2013-09-01 20:07:00,
2013-09-01 16:12:00,83.7,71.6,29.81,West,266,5.0,11.0,67,0.00,,---,0.00,VWS V13.01,2013-09-01 20:12:00,
2013-09-01 16:17:00,84.2,71.6,29.80,West,267,4.0,11.0,66,0.00,,---,0.00,VWS V13.01,2013-09-01 20:17:00,
2013-09-01 16:22:00,85.0,71.9,29.80,WSW,244,5.0,11.0,65,0.00,,---,0.00,VWS V13.01,2013-09-01 20:22:00,
2013-09-01 16:27:00,85.4,71.8,29.80,West,279,11.0,15.0,64,0.00,,---,0.00,VWS V13.01,2013-09-01 20:27:00,
2013-09-01 16:32:00,84.9,70.9,29.80,West,273,4.0,8.0,63,0.00,,---,0.00,VWS V13.01,2013-09-01 20:32:00,
2013-09-01 16:37:00,84.7,71.2,29.80,SW,232,6.0,11.0,64,0.00,,---,0.00,VWS V13.01,2013-09-01 20:37:00,
2013-09-01 16:42:00,84.8,71.3,29.80,WSW,249,7.0,11.0,64,0.00,,---,0.00,VWS V13.01,2013-09-01 20:42:00,
2013-09-01 16:47:00,84.4,70.9,29.79,West,274,1.0,11.0,64,0.00,,---,0.00,VWS V13.01,2013-09-01 20:47:00,
2013-09-01 16:52:00,83.6,70.1,29.80,SW,236,0.0,11.0,64,0.00,,---,0.00,VWS V13.01,2013-09-01 20:52:00,
2013-09-01 16:57:00,82.9,71.3,29.80,SSW,204,0.0,11.0,68,0.00,,---,0.00,VWS V13.01,2013-09-01 20:57:00,
2013-09-01 17:02:00,82.3,70.7,29.81,West,273,5.0,9.0,68,0.00,,---,0.00,VWS V13.01,2013-09-01 21:02:00,
2013-09-01 17:08:00,81.4,71.1,29.81,West,270,3.0,9.0,71,0.00,,---,0.00,VWS V13.01,2013-09-01 21:08:00,
2013-09-01 17:13:00,80.8,70.9,29.80,West,265,1.0,9.0,72,0.00,,---,0.00,VWS V13.01,2013-09-01 21:13:00,
2013-09-01 17:18:00,80.5,70.7,29.80,West,265,0.0,9.0,72,0.00,,---,0.00,VWS V13.01,2013-09-01 21:18:00,
2013-09-01 17:23:00,80.3,71.3,29.80,West,266,0.0,9.0,74,0.00,,---,0.00,VWS V13.01,2013-09-01 21:23:00,
2013-09-01 17:28:00,80.1,70.7,29.80,WSW,244,0.0,9.0,73,0.00,,---,0.00,VWS V13.01,2013-09-01 21:28:00,
2013-09-01 17:33:00,79.8,72.3,29.81,WSW,244,0.0,0.0,78,0.00,,---,0.00,VWS V13.01,2013-09-01 21:33:00,
2013-09-01 17:38:00,79.3,72.2,29.81,WSW,244,0.0,0.0,79,0.00,,---,0.00,VWS V13.01,2013-09-01 21:38:00,
2013-09-01 17:43:00,78.5,72.2,29.81,WSW,244,0.0,0.0,81,0.00,,---,0.00,VWS V13.01,2013-09-01 21:43:00,
2013-09-01 17:48:00,77.6,71.3,29.82,SSW,207,6.0,12.0,81,0.00,,---,0.00,VWS V13.01,2013-09-01 21:48:00,
2013-09-01 17:54:00,76.6,71.4,29.82,West,265,9.0,12.0,84,0.00,,---,0.00,VWS V13.01,2013-09-01 21:54:00,
2013-09-01 17:59:00,75.1,69.9,29.84,WSW,243,12.0,14.0,84,0.00,,---,0.00,VWS V13.01,2013-09-01 21:59:00,
2013-09-01 18:04:00,73.0,67.5,29.84,West,263,11.0,15.0,83,0.00,,---,0.00,VWS V13.01,2013-09-01 22:04:00,
2013-09-01 18:09:00,71.3,67.2,29.84,SW,227,4.0,15.0,87,0.00,,---,0.00,VWS V13.01,2013-09-01 22:09:00,
2013-09-01 18:14:00,70.4,67.0,29.83,SW,228,0.0,15.0,89,0.00,,---,0.00,VWS V13.01,2013-09-01 22:14:00,
2013-09-01 18:19:00,70.3,67.6,29.84,SW,229,2.0,15.0,91,0.00,,---,0.00,VWS V13.01,2013-09-01 22:19:00,
2013-09-01 18:24:00,70.3,68.2,29.84,SW,229,0.0,15.0,93,0.00,,---,0.00,VWS V13.01,2013-09-01 22:24:00,
2013-09-01 18:29:00,70.1,68.3,29.84,SW,228,1.0,15.0,94,0.00,,---,0.00,VWS V13.01,2013-09-01 22:29:00,
2013-09-01 18:34:00,69.8,68.0,29.85,SW,227,2.0,4.0,94,0.00,,---,0.00,VWS V13.01,2013-09-01 22:34:00,
2013-09-01 18:39:00,69.6,68.1,29.85,SW,228,0.0,4.0,95,0.00,,---,0.00,VWS V13.01,2013-09-01 22:39:00,
2013-09-01 18:44:00,69.5,68.0,29.85,SW,228,1.0,4.0,95,0.00,,---,0.00,VWS V13.01,2013-09-01 22:44:00,
2013-09-01 18:49:00,69.4,67.9,29.84,SW,227,0.0,4.0,95,0.00,,---,0.00,VWS V13.01,2013-09-01 22:49:00,
2013-09-01 18:55:00,69.4,68.2,29.84,SW,228,2.0,4.0,96,0.00,,---,0.00,VWS V13.01,2013-09-01 22:55:00,
2013-09-01 19:00:00,69.5,68.3,29.84,SW,228,0.0,4.0,96,0.00,,---,0.00,VWS V13.01,2013-09-01 23:00:00,
2013-09-01 19:05:00,69.5,68.3,29.84,SW,228,2.0,5.0,96,0.00,,---,0.00,VWS V13.01,2013-09-01 23:05:00,
2013-09-01 19:10:00,69.4,68.2,29.83,SW,228,0.0,5.0,96,0.00,,---,0.00,VWS V13.01,2013-09-01 23:10:00,
2013-09-01 19:15:00,69.5,68.3,29.83,SW,226,0.0,5.0,96,0.00,,---,0.00,VWS V13.01,2013-09-01 23:15:00,
2013-09-01 19:20:00,69.4,68.5,29.83,SSW,206,0.0,5.0,97,0.00,,---,0.00,VWS V13.01,2013-09-01 23:20:00,
2013-09-01 19:25:00,69.5,68.6,29.84,SW,221,0.0,5.0,97,0.00,,---,0.00,VWS V13.01,2013-09-01 23:25:00,
2013-09-01 19:30:00,69.4,68.5,29.84,SW,221,0.0,0.0,97,0.00,,---,0.00,VWS V13.01,2013-09-01 23:30:00,
2013-09-01 19:35:00,69.4,68.5,29.84,SW,221,0.0,0.0,97,0.00,,---,0.00,VWS V13.01,2013-09-01 23:35:00,
2013-09-01 19:40:00,69.4,68.5,29.84,SW,221,0.0,0.0,97,0.00,,---,0.00,VWS V13.01,2013-09-01 23:40:00,
2013-09-01 19:45:00,69.4,68.5,29.83,SW,221,0.0,0.0,97,0.00,,---,0.00,VWS V13.01,2013-09-01 23:45:00,
2013-09-01 19:51:00,69.4,68.5,29.84,SW,221,0.0,0.0,97,0.00,,---,0.00,VWS V13.01,2013-09-01 23:51:00,
2013-09-01 19:56:00,69.3,68.4,29.84,SW,221,0.0,0.0,97,0.00,,---,0.00,VWS V13.01,2013-09-01 23:56:00,
2013-09-01 20:01:00,69.3,68.4,29.84,SW,221,0.0,0.0,97,0.00,,---,0.00,VWS V13.01,2013-09-02 00:01:00,
2013-09-01 20:06:00,69.4,68.5,29.84,SW,221,0.0,0.0,97,0.00,,---,0.00,VWS V13.01,2013-09-02 00:06:00,
2013-09-01 20:11:00,69.4,68.5,29.84,SW,221,0.0,0.0,97,0.00,,---,0.00,VWS V13.01,2013-09-02 00:11:00,
2013-09-01 20:16:00,69.5,68.6,29.84,SW,221,0.0,0.0,97,0.00,,---,0.00,VWS V13.01,2013-09-02 00:16:00,
2013-09-01 20:21:00,69.6,68.7,29.85,SW,221,0.0,0.0,97,0.00,,---,0.00,VWS V13.01,2013-09-02 00:21:00,
2013-09-01 20:26:00,69.6,68.7,29.85,SW,221,0.0,0.0,97,0.00,,---,0.00,VWS V13.01,2013-09-02 00:26:00,
2013-09-01 20:31:00,69.5,68.6,29.84,SW,221,0.0,0.0,97,0.00,,---,0.00,VWS V13.01,2013-09-02 00:31:00,
2013-09-01 20:36:00,69.5,68.6,29.85,SW,221,0.0,0.0,97,0.00,,---,0.00,VWS V13.01,2013-09-02 00:36:00,
2013-09-01 20:42:00,69.4,68.5,29.85,SW,221,0.0,0.0,97,0.00,,---,0.00,VWS V13.01,2013-09-02 00:42:00,
2013-09-01 20:47:00,69.4,68.8,29.85,SW,221,0.0,0.0,98,0.00,,---,0.00,VWS V13.01,2013-09-02 00:47:00,
2013-09-01 20:52:00,69.4,68.8,29.85,SW,221,0.0,0.0,98,0.00,,---,0.00,VWS V13.01,2013-09-02 00:52:00,
2013-09-01 20:57:00,69.4,68.8,29.85,SW,221,0.0,0.0,98,0.00,,---,0.00,VWS V13.01,2013-09-02 00:57:00,
2013-09-01 21:02:00,69.4,68.8,29.85,SW,221,0.0,0.0,98,0.00,,---,0.00,VWS V13.01,2013-09-02 01:02:00,
2013-09-01 21:07:00,69.5,68.9,29.86,SW,221,0.0,0.0,98,0.00,,---,0.00,VWS V13.01,2013-09-02 01:07:00,
2013-09-01 21:12:00,69.5,68.9,29.86,SW,221,0.0,0.0,98,0.00,,---,0.00,VWS V13.01,2013-09-02 01:12:00,
2013-09-01 21:17:00,69.4,68.8,29.86,SW,221,0.0,0.0,98,0.00,,---,0.00,VWS V13.01,2013-09-02 01:17:00,
2013-09-01 21:22:00,69.3,68.7,29.86,SW,221,0.0,0.0,98,0.00,,---,0.00,VWS V13.01,2013-09-02 01:22:00,
2013-09-01 21:27:00,69.3,68.7,29.87,SW,221,0.0,0.0,98,0.00,,---,0.00,VWS V13.01,2013-09-02 01:27:00,
2013-09-01 21:33:00,69.3,68.7,29.87,SW,221,0.0,0.0,98,0.00,,---,0.00,VWS V13.01,2013-09-02 01:33:00,
2013-09-01 21:38:00,69.4,68.8,29.87,SW,221,0.0,0.0,98,0.00,,---,0.00,VWS V13.01,2013-09-02 01:38:00,
2013-09-01 21:43:00,69.2,68.6,29.87,SW,221,0.0,0.0,98,0.00,,---,0.00,VWS V13.01,2013-09-02 01:43:00,
2013-09-01 21:48:00,69.2,68.6,29.88,SW,221,0.0,0.0,98,0.00,,---,0.00,VWS V13.01,2013-09-02 01:48:00,
2013-09-01 21:53:00,69.3,68.7,29.87,SW,221,0.0,0.0,98,0.00,,---,0.00,VWS V13.01,2013-09-02 01:53:00,
2013-09-01 21:58:00,69.2,68.6,29.87,SW,221,0.0,0.0,98,0.00,,---,0.00,VWS V13.01,2013-09-02 01:58:00,
2013-09-01 22:03:00,69.0,68.4,29.88,SW,221,0.0,0.0,98,0.00,,---,0.00,VWS V13.01,2013-09-02 02:03:00,
2013-09-01 22:08:00,69.0,68.4,29.87,SW,221,0.0,0.0,98,0.00,,---,0.00,VWS V13.01,2013-09-02 02:08:00,
2013-09-01 22:13:00,69.0,68.4,29.87,SW,221,0.0,0.0,98,0.00,,---,0.00,VWS V13.01,2013-09-02 02:13:00,
2013-09-01 22:19:00,68.9,68.3,29.87,SW,221,0.0,0.0,98,0.00,,---,0.00,VWS V13.01,2013-09-02 02:19:00,
2013-09-01 22:24:00,68.8,68.2,29.87,SW,221,0.0,0.0,98,0.00,,---,0.00,VWS V13.01,2013-09-02 02:24:00,
2013-09-01 22:29:00,68.8,68.2,29.87,SW,221,0.0,0.0,98,0.00,,---,0.00,VWS V13.01,2013-09-02 02:29:00,
2013-09-01 22:34:00,68.8,68.2,29.87,SW,221,0.0,0.0,98,0.00,,---,0.00,VWS V13.01,2013-09-02 02:34:00,
2013-09-01 22:39:00,68.8,68.2,29.87,SW,221,0.0,1.0,98,0.00,,---,0.00,VWS V13.01,2013-09-02 02:39:00,
2013-09-01 22:44:00,68.7,68.1,29.87,SW,221,2.0,2.0,98,0.00,,---,0.00,VWS V13.01,2013-09-02 02:44:00,
2013-09-01 22:49:00,68.6,68.0,29.87,SW,221,0.0,2.0,98,0.00,,---,0.00,VWS V13.01,2013-09-02 02:49:00,
2013-09-01 22:54:00,68.5,67.9,29.87,SW,221,0.0,2.0,98,0.00,,---,0.00,VWS V13.01,2013-09-02 02:54:00,
2013-09-01 22:59:00,68.5,67.9,29.87,SW,221,0.0,2.0,98,0.00,,---,0.00,VWS V13.01,2013-09-02 02:59:00,
2013-09-01 23:04:00,68.5,67.9,29.87,SW,221,0.0,0.0,98,0.00,,---,0.00,VWS V13.01,2013-09-02 03:04:00,
2013-09-01 23:09:00,68.5,67.9,29.86,SW,221,0.0,1.0,98,0.00,,---,0.00,VWS V13.01,2013-09-02 03:09:00,
2013-09-01 23:15:00,68.5,-90.3,29.87,SW,221,0.0,1.0,98,0.00,,---,0.00,VWS V13.01,2013-09-02 03:15:00,
2013-09-01 23:20:00,68.5,-90.3,29.88,SW,221,0.0,1.0,98,0.00,,---,0.00,VWS V13.01,2013-09-02 03:20:00,
2013-09-01 23:25:00,68.5,-90.3,29.89,SW,221,0.0,1.0,98,0.00,,---,0.00,VWS V13.01,2013-09-02 03:25:00,
2013-09-01 23:30:00,68.5,-90.3,29.90,SW,221,0.0,0.0,98,0.00,,---,0.00,VWS V13.01,2013-09-02 03:30:00,
2013-09-01 23:35:00,68.5,-90.3,29.90,SW,221,0.0,0.0,98,0.00,,---,0.00,VWS V13.01,2013-09-02 03:35:00,
2013-09-01 23:40:00,68.5,-90.3,29.91,SW,221,0.0,0.0,98,0.00,,---,0.00,VWS V13.01,2013-09-02 03:40:00,
2013-09-01 23:45:00,68.5,-90.3,29.91,SW,221,0.0,0.0,98,0.00,,---,0.00,VWS V13.01,2013-09-02 03:45:00,
2013-09-01 23:50:00,68.5,-90.3,29.91,SW,221,0.0,0.0,98,0.00,,---,0.00,VWS V13.01,2013-09-02 03:50:00,
2013-09-01 23:56:00,68.5,-90.3,29.91,SW,221,0.0,0.0,98,0.00,,---,0.00,VWS V13.01,2013-09-02 03:56:00,